DW0931 Weather Reports


Display with metric or nautical units.
time (UTC)temp
F
wind
direction
speed
MPH
gust
MPH
rain 1hr
in
rain 24hr
in
rain mn
in
humidity
%
barometer
mb
20190224004500 48 101 0.0 1.0 0.00 0.01 0.01 43 1027.0
20190224003454 49 101 0.0 1.0 0.00 0.01 0.01 42 1027.2
20190224002450 49 101 0.0 2.0 0.00 0.02 0.01 41 1027.2
20190224001443 50 101 1.0 6.0 0.00 0.02 0.01 41 1027.5
20190224000430 50 101 0.0 5.0 0.00 0.02 0.01 41 1027.5
20190223235424 50 101 1.0 8.0 0.00 0.02 0.01 41 1027.3
20190223234423 51 101 1.0 9.0 0.00 0.02 0.01 41 1027.2
20190223233420 51 101 0.0 6.0 0.00 0.02 0.01 41 1027.3
20190223232420 52 102 0.0 0.0 0.00 0.03 0.01 41 1027.5
20190223231420 52 102 0.0 1.0 0.00 0.03 0.01 40 1027.6
20190223230416 52 102 0.0 2.0 0.00 0.03 0.01 39 1027.5
20190223225416 52 102 0.0 4.0 0.00 0.03 0.01 40 1027.9
20190223224409 52 102 0.0 4.0 0.00 0.03 0.01 39 1027.6
20190223223410 52 101 0.0 6.0 0.00 0.03 0.01 41 1027.8
20190223222410 52 102 0.0 6.0 0.00 0.03 0.01 39 1028.0
20190223221410 53 101 0.0 6.0 0.00 0.03 0.01 38 1028.1
20190223220410 53 102 0.0 9.0 0.00 0.03 0.01 39 1028.1
20190223215406 53 102 0.0 5.0 0.00 0.03 0.01 39 1028.3
20190223214406 53 102 0.0 4.0 0.00 0.03 0.01 40 1028.3
20190223213400 52 102 0.0 4.0 0.00 0.03 0.01 41 1028.3
20190223212350 52 102 0.0 2.0 0.00 0.03 0.01 39 1028.3
20190223211342 51 102 0.0 6.0 0.00 0.03 0.01 41 1028.4
20190223210343 51 102 0.0 1.0 0.00 0.03 0.01 40 1028.4
20190223205341 51 102 0.0 1.0 0.00 0.03 0.01 41 1028.6
20190223204343 51 102 0.0 0.0 0.00 0.03 0.01 42 1028.8
20190223203324 50 102 0.0 5.0 0.00 0.03 0.01 46 1028.8
20190223202324 50 102 0.0 7.0 0.00 0.03 0.01 49 1028.9
20190223201319 49 103 1.0 8.0 0.00 0.03 0.01 52 1029.1
20190223200320 49 103 0.0 7.0 0.00 0.03 0.01 51 1029.5
20190223195317 49 104 0.0 6.0 0.00 0.03 0.01 52 1029.6
20190223194256 49 104 0.0 6.0 0.00 0.03 0.01 55 1029.7
20190223193243 48 104 1.0 9.0 0.00 0.03 0.01 54 1029.8
20190223192224 48 104 0.0 6.0 0.00 0.03 0.01 56 1029.9
20190223191224 48 105 1.0 6.0 0.00 0.03 0.01 57 1030.1
20190223190224 48 105 0.0 6.0 0.00 0.03 0.01 58 1030.1
20190223185222 47 105 1.0 7.0 0.00 0.03 0.01 58 1030.2
20190223184220 47 105 1.0 6.0 0.00 0.05 0.01 57 1030.3
20190223183215 47 105 1.0 7.0 0.00 0.06 0.01 59 1030.4
20190223182216 46 105 1.0 5.0 0.00 0.07 0.01 61 1030.3
20190223181202 46 105 0.0 6.0 0.00 0.07 0.01 62 1030.5
20190223180146 45 105 1.0 5.0 0.00 0.07 0.01 63 1030.4
20190223175139 44 105 1.0 6.0 0.00 0.07 0.01 62 1030.3
20190223174138 44 107 1.0 8.0 0.00 0.07 0.01 64 1030.2
20190223173138 44 89 1.0 8.0 0.00 0.07 0.01 65 1030.1
20190223172136 43 90 1.0 5.0 0.00 0.07 0.01 68 1030.1
20190223171132 42 90 1.0 7.0 0.00 0.07 0.01 69 1030.1
20190223170123 42 85 1.0 10.0 0.00 0.07 0.01 73 1030.0
20190223165124 41 86 1.0 10.0 0.00 0.08 0.01 74 1029.8
20190223164124 40 86 2.0 10.0 0.00 0.08 0.01 76 1029.5
20190223163128 40 84 1.0 6.0 0.00 0.08 0.01 78 1029.6
20190223162126 40 84 1.0 8.0 0.00 0.08 0.01 80 1029.6
20190223161124 39 92 2.0 9.0 0.00 0.08 0.01 81 1029.3
20190223160103 39 91 1.0 8.0 0.00 0.09 0.01 83 1029.3
20190223155108 38 92 2.0 7.0 0.00 0.09 0.01 85 1029.2
20190223154056 37 92 2.0 7.0 0.00 0.09 0.01 86 1029.1
20190223153045 37 92 2.0 9.0 0.00 0.09 0.01 87 1029.0
20190223152046 36 126 0.0 7.0 0.00 0.09 0.01 87 1028.9
20190223151052 35 129 0.0 5.0 0.00 0.09 0.01 87 1028.6
20190223150020 35 129 0.0 6.0 0.00 0.09 0.01 88 1028.4
20190223145025 34 130 1.0 5.0 0.00 0.09 0.01 88 1028.4
20190223144009 34 131 0.0 5.0 0.00 0.09 0.01 88 1028.3
20190223143009 34 132 0.0 2.0 0.00 0.09 0.01 88 1028.2
20190223141953 34 132 0.0 4.0 0.00 0.09 0.01 88 1028.1
20190223140946 34 132 0.0 4.0 0.00 0.09 0.01 88 1027.9
20190223135928 34 132 0.0 7.0 0.00 0.09 0.01 89 1027.6
20190223134928 34 149 0.0 2.0 0.00 0.09 0.01 88 1027.6
20190223133924 34 149 0.0 0.0 0.00 0.09 0.01 89 1027.4
20190223132925 34 149 0.0 0.0 0.00 0.09 0.01 89 1027.5
20190223131921 34 149 0.0 0.0 0.00 0.09 0.01 89 1027.3
20190223130920 34 149 0.0 0.0 0.01 0.09 0.01 88 1027.1
20190223125920 34 149 0.0 0.0 0.01 0.10 0.01 89 1026.9
20190223124906 34 149 0.0 0.0 0.01 0.10 0.01 88 1026.9
20190223123906 35 149 0.0 0.0 0.01 0.11 0.01 88 1026.9
20190223122848 35 149 0.0 0.0 0.01 0.11 0.01 89 1026.8
20190223121804 35 149 0.0 0.0 0.00 0.10 0.00 89 1026.7
20190223120801 35 149 0.0 0.0 0.00 0.10 0.00 89 1026.6
20190223115742 35 149 0.0 0.0 0.00 0.11 0.00 89 1026.5
20190223114742 35 149 0.0 0.0 0.00 0.11 0.00 89 1026.3
20190223113723 35 149 0.0 0.0 0.00 0.11 0.00 89 1026.3
20190223112723 35 149 0.0 0.0 0.00 0.11 0.00 88 1026.3
20190223111724 35 149 0.0 0.0 0.00 0.12 0.00 88 1026.1
20190223110716 35 149 0.0 0.0 0.00 0.12 0.00 88 1025.8
20190223105700 35 149 0.0 0.0 0.00 0.12 0.00 88 1025.6
20190223104646 35 149 0.0 2.0 0.00 0.13 0.00 88 1025.3
20190223103642 35 149 0.0 0.0 0.00 0.13 0.00 88 1025.2
20190223102625 35 149 0.0 0.0 0.00 0.14 0.00 88 1025.0
20190223101620 35 149 0.0 0.0 0.00 0.16 0.00 88 1025.0
20190223100554 35 149 0.0 0.0 0.00 0.17 0.00 88 1024.9
20190223095546 35 149 0.0 0.0 0.00 0.17 0.00 88 1025.0
20190223094543 35 149 0.0 0.0 0.00 0.18 0.00 88 1024.9
20190223093542 36 149 0.0 0.0 0.00 0.18 0.00 88 1024.6
20190223092538 35 149 0.0 0.0 0.00 0.19 0.00 88 1024.7
20190223091528 35 149 0.0 0.0 0.00 0.20 0.00 88 1024.5
20190223090520 36 149 0.0 0.0 0.00 0.20 0.00 88 1024.5
20190223085520 36 149 0.0 0.0 0.00 0.21 0.00 88 1024.4
20190223084514 36 149 0.0 0.0 0.00 0.22 0.00 88 1024.0
20190223083514 36 149 0.0 0.0 0.00 0.22 0.00 88 1023.9
20190223082506 37 149 0.0 0.0 0.00 0.23 0.00 88 1023.7
20190223081506 37 149 0.0 0.0 0.00 0.24 0.00 88 1023.6
20190223080438 38 149 0.0 0.0 0.00 0.25 0.00 88 1023.4
20190223075424 38 149 0.0 0.0 0.00 0.26 0.00 88 1023.4
20190223074420 38 149 0.0 0.0 0.00 0.27 0.00 88 1023.3
20190223073412 38 149 0.0 0.0 0.00 0.27 0.00 88 1023.3
20190223072356 38 149 0.0 0.0 0.00 0.28 0.00 88 1023.2
20190223071357 38 149 0.0 4.0 0.00 0.29 0.00 88 1023.2
20190223070357 38 149 0.0 1.0 0.00 0.31 0.00 88 1022.8
20190223065353 38 149 0.0 2.0 0.00 0.31 0.31 88 1022.7
20190223064339 38 149 0.0 0.0 0.00 0.32 0.31 88 1022.6
20190223063325 38 149 0.0 0.0 0.00 0.35 0.31 88 1022.6
20190223062329 38 149 0.0 5.0 0.00 0.36 0.31 88 1022.4
20190223061325 38 150 0.0 0.0 0.00 0.37 0.31 88 1022.2
20190223060317 38 150 0.0 0.0 0.00 0.38 0.31 88 1022.2
20190223055310 37 150 0.0 0.0 0.00 0.40 0.31 88 1022.2
20190223054246 37 150 0.0 4.0 0.00 0.42 0.31 88 1021.9
20190223053243 37 150 1.0 5.0 0.00 0.43 0.31 88 1021.9
20190223052225 37 151 0.0 5.0 0.00 0.45 0.31 88 1021.5
20190223051225 37 151 0.0 7.0 0.00 0.46 0.31 87 1021.3
20190223050213 37 153 0.0 4.0 0.00 0.47 0.31 87 1021.1
20190223045211 37 153 0.0 0.0 0.00 0.48 0.31 87 1021.1
20190223044203 37 153 0.0 0.0 0.00 0.49 0.31 87 1020.7
20190223043203 37 153 0.0 0.0 0.00 0.49 0.31 87 1020.6
20190223042141 37 153 0.0 0.0 0.00 0.50 0.31 86 1020.4
20190223041131 37 153 0.0 0.0 0.00 0.50 0.31 86 1020.3
20190223040127 37 153 0.0 0.0 0.00 0.50 0.31 86 1020.3
20190223035126 37 153 0.0 0.0 0.00 0.51 0.31 86 1020.3
20190223034125 38 153 0.0 0.0 0.00 0.52 0.31 85 1020.3
20190223033119 38 153 0.0 0.0 0.00 0.54 0.31 85 1020.0
20190223032117 38 153 0.0 0.0 0.00 0.55 0.31 85 1019.9
20190223031103 38 153 0.0 0.0 0.00 0.57 0.31 85 1019.8
20190223030035 39 153 0.0 0.0 0.00 0.58 0.31 85 1019.4
20190223025025 39 153 0.0 0.0 0.00 0.59 0.31 85 1019.2
20190223024021 40 153 0.0 0.0 0.00 0.60 0.31 85 1019.1
20190223023023 40 153 0.0 0.0 0.00 0.61 0.31 85 1018.9
20190223022021 40 153 0.0 0.0 0.00 0.62 0.31 85 1018.5
20190223021022 40 153 0.0 0.0 0.00 0.63 0.31 85 1018.4
20190223020023 40 153 0.0 0.0 0.00 0.63 0.31 85 1018.3
20190223015005 41 153 0.0 0.0 0.00 0.64 0.31 85 1017.9
20190223013943 41 153 0.0 0.0 0.00 0.64 0.31 84 1017.7
20190223012925 41 153 0.0 0.0 0.01 0.65 0.31 84 1017.6
20190223011925 42 153 0.0 0.0 0.01 0.65 0.31 84 1017.6
20190223010920 42 153 0.0 0.0 0.01 0.66 0.31 84 1017.1
20190223005905 42 153 0.0 0.0 0.01 0.67 0.31 84 1016.9
20190223004851 42 153 0.0 0.0 0.01 0.67 0.31 84 1016.7